�N����,����,�~����,�C��,���x,�C��,����,���ϕ���,�ő�u�ԕ���,�ő厞����,���˗�,�I�_���x,�n�����x,�ő啗���N��,DTYPE
"18/12/11","00:10",0.0,2.6,93.4,1023.7,325.6,4.0,6.6,320.8,0.00,1.7,7.7,"00:03:32",1
"18/12/11","00:20",0.0,2.6,93.6,1023.9,323.0,3.1,4.7,324.8,0.00,1.7,7.6,"00:14:50",1
"18/12/11","00:30",0.0,2.4,93.5,1023.9,325.7,3.0,4.4,334.0,0.00,1.5,7.6,"00:28:22",1
"18/12/11","00:40",0.0,2.4,93.4,1023.7,327.1,3.5,5.7,324.5,0.00,1.5,7.5,"00:32:14",1
"18/12/11","00:50",0.0,2.4,93.4,1023.7,320.5,3.1,4.7,314.3,0.00,1.5,7.3,"00:48:10",1
"18/12/11","01:00",0.0,2.2,93.5,1023.4,319.2,3.1,3.9,332.2,0.00,1.3,7.5,"00:52:36",1
"18/12/11","01:10",0.0,2.1,93.5,1023.7,319.8,3.2,4.2,319.5,0.00,1.2,7.5,"01:01:14",1
"18/12/11","01:20",0.0,2.4,93.8,1023.9,313.6,3.7,5.6,324.5,0.00,1.5,7.6,"01:15:42",1
"18/12/11","01:30",0.0,2.2,93.6,1024.1,323.4,3.2,5.0,318.6,0.00,1.3,7.3,"01:22:00",1
"18/12/11","01:40",0.0,2.0,94.2,1023.4,331.3,3.1,4.7,343.1,0.00,1.2,7.3,"01:32:58",1
"18/12/11","01:50",0.0,2.0,94.3,1023.4,310.2,3.6,5.2,313.7,0.00,1.2,7.3,"01:48:16",1
"18/12/11","02:00",0.0,2.0,94.4,1023.7,320.4,4.0,5.4,328.1,0.00,1.2,7.4,"01:51:10",1
"18/12/11","02:10",0.0,2.0,94.1,1023.4,317.3,3.1,5.2,311.7,0.00,1.2,7.3,"02:05:12",1
"18/12/11","02:20",0.0,1.7,94.2,1023.7,312.5,1.8,3.4,316.3,0.00,0.9,7.1,"02:10:16",1
"18/12/11","02:30",0.0,1.4,94.0,1023.2,323.8,2.6,5.7,316.3,0.00,0.6,7.2,"02:23:04",1
"18/12/11","02:40",0.0,1.5,95.0,1023.7,321.5,2.5,4.7,328.3,0.00,0.8,7.3,"02:38:00",1
"18/12/11","02:50",0.0,1.3,94.8,1023.2,322.5,2.7,4.3,323.7,0.00,0.6,7.4,"02:49:38",1
"18/12/11","03:00",0.0,1.4,95.0,1023.4,315.4,3.6,5.0,332.1,0.00,0.7,7.2,"02:52:40",1
"18/12/11","03:10",0.0,1.5,95.2,1023.2,316.1,3.6,4.9,327.2,0.00,0.9,7.2,"03:00:34",1
"18/12/11","03:20",0.0,1.4,95.4,1023.2,320.1,3.7,4.8,323.2,0.00,0.8,7.1,"03:12:04",1
"18/12/11","03:30",0.0,1.5,95.3,1022.5,315.0,4.0,5.5,318.6,0.00,0.9,7.0,"03:28:06",1
"18/12/11","03:40",0.0,1.3,95.2,1022.5,305.6,3.1,4.4,335.3,0.00,0.7,7.1,"03:33:40",1
"18/12/11","03:50",0.0,1.3,95.8,1022.0,311.9,3.2,4.2,322.1,0.00,0.7,7.1,"03:47:30",1
"18/12/11","04:00",0.0,1.0,95.3,1022.0,298.0,1.5,3.2,321.4,0.00,0.4,6.9,"03:50:16",1
"18/12/11","04:10",0.0,0.2,95.5,1022.5,320.5,1.8,2.6,314.7,0.00,-0.4,6.9,"04:01:52",1
"18/12/11","04:20",0.0,0.7,96.9,1022.3,326.8,2.2,4.3,336.2,0.00,0.3,7.0,"04:19:32",1
"18/12/11","04:30",0.0,0.9,96.4,1022.0,319.9,3.0,4.1,318.7,0.00,0.4,6.9,"04:20:40",1
"18/12/11","04:40",0.0,1.0,96.6,1022.0,314.7,3.2,4.8,340.5,0.00,0.6,6.9,"04:38:44",1
"18/12/11","04:50",0.0,0.8,96.0,1022.0,314.5,2.8,4.2,329.5,0.00,0.3,6.9,"04:42:04",1
"18/12/11","05:00",0.0,0.4,96.8,1022.0,338.3,1.8,2.9,326.0,0.00,0.0,7.0,"04:56:26",1
"18/12/11","05:10",0.0,0.8,96.9,1022.0,327.7,2.6,4.4,339.3,0.00,0.4,7.0,"05:01:34",1
"18/12/11","05:20",0.0,0.7,96.6,1022.3,327.2,1.7,3.1,309.8,0.00,0.3,6.8,"05:13:12",1
"18/12/11","05:30",0.0,0.6,97.4,1022.0,327.0,2.0,3.4,310.9,0.00,0.3,6.8,"05:29:40",1
"18/12/11","05:40",0.0,0.7,97.2,1021.8,321.3,2.0,3.1,331.3,0.00,0.3,6.7,"05:35:36",1
"18/12/11","05:50",0.0,0.8,96.7,1022.0,318.3,3.0,4.1,325.8,0.00,0.4,6.7,"05:46:54",1
"18/12/11","06:00",0.0,0.8,97.0,1022.5,324.3,3.4,5.1,320.2,0.00,0.4,6.8,"05:55:22",1
"18/12/11","06:10",0.0,0.9,97.1,1022.3,317.7,4.0,6.4,311.3,0.00,0.5,6.5,"06:09:44",1
"18/12/11","06:20",0.0,0.8,97.0,1022.3,319.3,3.5,5.5,325.3,0.00,0.4,6.9,"06:15:06",1
"18/12/11","06:30",0.0,0.6,97.0,1022.7,325.5,3.1,4.9,322.6,0.00,0.2,6.6,"06:20:44",1
"18/12/11","06:40",0.0,0.5,97.0,1022.5,328.6,2.2,3.1,334.7,0.00,0.1,6.5,"06:32:02",1
"18/12/11","06:50",0.0,0.5,97.0,1022.7,329.3,2.7,5.1,325.3,0.00,0.1,6.6,"06:42:08",1
"18/12/11","07:00",0.0,0.7,97.1,1023.0,323.5,4.0,5.6,328.2,0.00,0.3,6.6,"06:58:50",1
"18/12/11","07:10",0.0,0.7,97.1,1023.0,316.4,4.1,5.8,324.4,0.00,0.3,6.4,"07:00:28",1
"18/12/11","07:20",0.0,0.9,97.2,1023.2,327.1,4.0,5.4,321.8,0.00,0.5,6.5,"07:19:12",1
"18/12/11","07:30",0.0,1.1,97.3,1023.4,322.5,3.2,4.9,317.5,0.00,0.8,6.4,"07:22:02",1
"18/12/11","07:40",0.0,1.4,96.7,1023.9,313.8,3.1,4.5,315.0,0.00,1.0,6.5,"07:32:40",1
"18/12/11","07:50",0.0,1.5,96.9,1023.7,296.9,1.6,2.6,316.0,0.00,1.1,6.6,"07:41:04",1
"18/12/11","08:00",0.0,1.4,96.7,1023.4,310.6,1.3,2.5,324.1,0.00,1.0,6.4,"07:51:36",1
"18/12/11","08:10",0.0,1.6,97.2,1023.2,302.8,1.8,2.7,305.9,0.02,1.2,6.6,"08:03:36",1
"18/12/11","08:20",0.0,1.9,96.8,1023.4,307.6,2.7,4.5,322.1,0.03,1.5,6.6,"08:18:02",1
"18/12/11","08:30",0.0,1.9,96.6,1023.2,310.4,2.7,4.5,337.2,0.02,1.5,6.6,"08:22:00",1
"18/12/11","08:40",0.0,2.0,96.5,1023.2,297.0,2.1,3.9,327.3,0.04,1.5,6.8,"08:31:04",1
"18/12/11","08:50",0.0,2.2,96.5,1023.7,298.3,2.0,3.5,323.0,0.05,1.7,7.0,"08:44:40",1
"18/12/11","09:00",0.0,2.6,96.5,1023.7,268.2,1.6,2.5,238.0,0.08,2.1,7.0,"08:58:32",1
"18/12/11","09:10",0.0,2.7,95.6,1023.7,288.0,2.3,3.6,304.8,0.10,2.1,6.9,"09:08:08",1
"18/12/11","09:20",0.0,3.5,94.5,1023.2,282.7,2.2,3.3,318.6,0.16,2.7,6.8,"09:10:08",1
"18/12/11","09:30",0.0,4.2,93.8,1023.4,295.8,2.2,3.7,322.5,0.19,3.3,7.2,"09:25:52",1
"18/12/11","09:40",0.0,4.2,90.7,1023.7,304.4,1.6,2.5,318.0,0.11,2.9,7.1,"09:31:20",1
"18/12/11","09:50",0.0,4.5,88.3,1023.2,291.4,1.0,1.4,279.2,0.13,2.8,7.3,"09:47:12",1
"18/12/11","10:00",0.0,5.0,86.7,1023.2,279.8,1.3,2.5,310.6,0.13,3.0,7.4,"09:50:02",1
"18/12/11","10:10",0.0,5.2,85.2,1023.2,275.6,2.0,2.8,327.9,0.17,3.0,7.7,"10:07:20",1
"18/12/11","10:20",0.0,5.5,83.7,1022.7,274.7,1.5,2.2,306.5,0.10,3.0,7.9,"10:12:32",1
"18/12/11","10:30",0.0,5.7,82.8,1023.0,275.0,1.3,2.6,298.9,0.16,3.0,7.7,"10:26:40",1
"18/12/11","10:40",0.0,6.1,81.7,1023.2,271.5,1.2,1.9,262.8,0.14,3.3,8.1,"10:38:08",1
"18/12/11","10:50",0.0,6.0,82.0,1022.7,273.1,1.2,2.0,310.2,0.13,3.2,8.2,"10:42:16",1
"18/12/11","11:00",0.0,6.6,81.4,1023.0,258.4,0.8,2.2,251.3,0.20,3.7,8.3,"10:58:24",1
"18/12/11","11:10",0.0,6.7,79.9,1022.7,265.3,1.5,2.5,252.1,0.31,3.5,8.4,"11:03:04",1
"18/12/11","11:20",0.0,7.1,78.2,1022.5,277.0,0.8,2.2,242.7,0.34,3.6,8.6,"11:15:52",1
"18/12/11","11:30",0.0,7.1,76.1,1022.3,269.2,1.0,1.7,230.5,0.15,3.2,8.8,"11:23:12",1
"18/12/11","11:40",0.0,7.3,76.1,1022.0,287.8,1.1,1.8,315.4,0.17,3.4,9.0,"11:32:48",1
"18/12/11","11:50",0.0,7.6,74.9,1021.3,235.7,0.7,1.4,274.6,0.22,3.5,9.0,"11:40:48",1
"18/12/11","12:00",0.0,8.1,73.7,1020.6,241.9,0.6,1.3,251.5,0.31,3.7,9.3,"11:51:52",1
"18/12/11","12:10",0.0,8.9,71.7,1020.6,212.8,0.7,2.0,159.0,0.36,4.1,9.6,"12:00:48",1
"18/12/11","12:20",0.0,9.5,71.7,1020.1,216.1,1.0,1.9,167.2,0.43,4.7,9.8,"12:10:32",1
"18/12/11","12:30",0.0,9.4,69.0,1019.9,213.6,1.3,2.6,234.3,0.47,4.0,9.9,"12:21:04",1
"18/12/11","12:40",0.0,9.5,68.1,1019.4,238.9,1.1,2.6,220.4,0.37,4.0,10.3,"12:37:28",1
"18/12/11","12:50",0.0,9.7,66.9,1019.0,246.9,1.5,3.1,237.7,0.37,3.9,10.3,"12:48:00",1
"18/12/11","13:00",0.0,9.8,66.6,1019.0,244.0,1.1,3.4,239.3,0.22,3.9,10.3,"12:57:04",1
"18/12/11","13:10",0.0,9.7,64.4,1018.2,247.3,0.8,2.0,246.0,0.15,3.4,10.6,"13:07:36",1
"18/12/11","13:20",0.0,10.6,61.0,1018.2,119.0,1.0,2.7,110.0,0.17,3.4,10.7,"13:14:24",1
"18/12/11","13:30",0.0,10.7,59.3,1018.7,95.0,0.8,2.5,98.1,0.18,3.1,10.8,"13:21:04",1
"18/12/11","13:40",0.0,10.8,61.5,1017.8,235.8,1.2,2.9,233.0,0.20,3.7,10.8,"13:34:16",1
"18/12/11","13:50",0.0,10.9,54.9,1017.8,169.6,1.1,2.6,141.7,0.15,2.2,10.8,"13:47:20",1
"18/12/11","14:00",0.0,11.0,54.5,1017.8,131.5,0.8,2.4,122.8,0.12,2.2,10.7,"13:58:24",1
"18/12/11","14:10",0.0,11.2,53.9,1017.3,163.7,1.0,1.9,129.8,0.19,2.3,10.9,"14:02:40",1
"18/12/11","14:20",0.0,10.9,53.6,1017.3,155.6,1.0,2.2,132.0,0.15,1.9,11.1,"14:18:48",1
"18/12/11","14:30",0.0,11.6,54.5,1016.8,185.7,1.0,2.6,201.7,0.22,2.8,11.0,"14:25:04",1
"18/12/11","14:40",0.0,11.2,54.4,1016.8,124.8,0.8,2.0,194.1,0.12,2.4,11.0,"14:31:04",1
"18/12/11","14:50",0.0,11.7,52.8,1016.8,139.9,0.7,1.9,108.1,0.14,2.4,11.1,"14:46:56",1
"18/12/11","15:00",0.0,11.8,53.0,1016.8,286.8,0.6,1.2,98.2,0.04,2.6,11.1,"14:59:28",1
"18/12/11","15:10",0.0,11.4,54.6,1016.8,95.3,0.7,1.8,14.9,0.01,2.6,11.1,"15:02:08",1
"18/12/11","15:20",0.0,11.2,56.6,1016.6,344.7,0.8,3.1,335.1,0.02,2.9,11.1,"15:19:50",1
"18/12/11","15:30",0.0,11.0,59.0,1016.6,317.9,1.6,2.1,313.5,0.02,3.3,11.0,"15:22:50",1
"18/12/11","15:40",0.0,11.1,60.0,1016.8,318.0,1.0,1.6,313.5,0.02,3.7,11.0,"15:30:32",1
"18/12/11","15:50",0.0,11.0,62.3,1016.6,316.4,1.7,2.5,320.9,0.01,4.1,11.1,"15:46:38",1
"18/12/11","16:00",0.0,10.7,65.1,1016.8,295.8,1.6,2.1,318.2,0.00,4.5,10.9,"15:54:02",1
"18/12/11","16:10",0.0,10.7,65.5,1016.8,320.7,1.8,2.5,332.3,0.00,4.5,11.0,"16:07:44",1
"18/12/11","16:20",0.0,10.5,65.9,1017.3,315.3,2.2,2.9,317.3,0.00,4.4,10.9,"16:10:24",1
"18/12/11","16:30",0.0,10.3,66.6,1017.3,325.4,2.3,3.5,312.1,0.00,4.4,10.8,"16:25:44",1
"18/12/11","16:40",0.0,10.2,67.5,1017.3,316.5,1.8,2.6,319.1,0.00,4.5,10.7,"16:33:44",1
"18/12/11","16:50",0.0,10.1,68.2,1017.3,298.4,2.1,3.4,315.2,0.00,4.5,10.6,"16:48:40",1
"18/12/11","17:00",0.0,10.0,68.4,1017.3,294.7,1.8,2.9,318.6,0.00,4.5,10.7,"16:50:08",1
"18/12/11","17:10",0.0,9.8,70.0,1017.1,321.1,1.5,2.1,307.4,0.00,4.6,10.7,"17:00:32",1
"18/12/11","17:20",0.0,9.3,72.8,1016.6,288.5,0.8,1.8,338.3,0.00,4.7,10.5,"17:10:40",1
"18/12/11","17:30",0.0,9.1,75.0,1017.3,262.9,1.7,2.5,247.1,0.00,4.9,10.6,"17:25:04",1
"18/12/11","17:40",0.0,9.2,75.6,1017.5,286.4,2.2,3.3,317.6,0.00,5.2,10.5,"17:39:44",1
"18/12/11","17:50",0.0,9.2,76.1,1017.1,287.2,1.7,3.4,321.0,0.00,5.3,10.5,"17:45:52",1
"18/12/11","18:00",0.0,9.3,76.1,1017.5,286.9,1.7,2.9,304.5,0.00,5.4,10.5,"17:57:36",1
"18/12/11","18:10",0.0,9.3,76.2,1017.3,287.6,2.1,2.8,308.5,0.00,5.4,10.2,"18:07:04",1
"18/12/11","18:20",0.0,9.2,77.1,1017.1,292.3,1.8,2.5,276.1,0.00,5.4,10.4,"18:10:08",1
"18/12/11","18:30",0.0,9.1,78.3,1017.3,292.1,2.1,2.9,316.6,0.00,5.6,10.4,"18:23:36",1
"18/12/11","18:40",0.0,8.9,79.8,1017.1,296.7,2.3,3.4,328.7,0.00,5.6,10.4,"18:38:16",1
"18/12/11","18:50",0.0,8.7,81.3,1016.1,302.2,2.0,3.4,316.1,0.00,5.7,10.3,"18:41:52",1
"18/12/11","19:00",0.0,8.6,82.7,1016.8,287.5,1.8,2.8,280.0,0.00,5.9,10.4,"18:55:04",1
"18/12/11","19:10",0.0,8.5,83.7,1016.1,281.6,1.3,1.8,265.6,0.00,5.9,10.1,"19:02:28",1
"18/12/11","19:20",0.0,8.5,85.2,1016.4,306.8,1.7,1.9,291.5,0.00,6.2,10.2,"19:18:52",1
"18/12/11","19:30",0.0,8.4,86.6,1016.1,310.6,2.1,2.7,313.4,0.00,6.3,10.1,"19:22:08",1
"18/12/11","19:40",0.2,8.3,87.8,1016.1,305.9,1.6,2.0,317.3,0.00,6.4,10.2,"19:39:36",1
"18/12/11","19:50",0.4,8.3,89.0,1016.1,281.2,1.3,2.6,317.9,0.00,6.6,10.2,"19:41:56",1
"18/12/11","20:00",0.4,8.2,89.9,1015.4,281.5,1.1,1.4,279.1,0.00,6.7,10.2,"19:50:08",1
"18/12/11","20:10",0.2,8.1,90.9,1015.6,273.5,1.2,1.7,267.6,0.00,6.7,10.3,"20:07:14",1
"18/12/11","20:20",0.2,8.1,91.8,1014.9,272.7,1.0,1.4,294.5,0.00,6.9,10.0,"20:10:02",1
"18/12/11","20:30",0.2,8.2,92.5,1015.2,293.6,1.3,1.9,267.6,0.00,7.1,10.2,"20:22:56",1
"18/12/11","20:40",0.2,8.2,93.0,1014.7,331.4,1.1,1.9,336.4,0.00,7.2,10.0,"20:36:16",1
"18/12/11","20:50",0.2,8.1,93.6,1014.0,290.9,0.7,1.1,307.1,0.00,7.2,10.1,"20:42:40",1
"18/12/11","21:00",0.2,8.1,94.1,1014.2,271.2,1.1,1.3,264.7,0.00,7.2,10.1,"20:58:56",1
"18/12/11","21:10",0.0,8.1,94.5,1014.2,289.3,1.1,1.4,296.5,0.00,7.3,9.9,"21:09:36",1
"18/12/11","21:20",0.2,8.1,94.8,1014.5,291.4,1.2,1.8,297.1,0.00,7.4,10.2,"21:10:08",1
"18/12/11","21:30",0.2,8.2,95.1,1014.5,327.4,1.2,1.8,329.1,0.00,7.5,10.0,"21:24:32",1
"18/12/11","21:40",0.0,8.2,95.4,1013.8,327.8,1.1,2.1,334.3,0.00,7.5,10.1,"21:36:32",1
"18/12/11","21:50",0.0,8.1,95.7,1013.5,294.6,0.7,1.2,322.5,0.00,7.5,10.0,"21:41:20",1
"18/12/11","22:00",0.2,8.2,95.9,1013.5,311.3,1.5,1.9,329.6,0.00,7.6,10.1,"21:56:00",1
"18/12/11","22:10",0.0,8.2,96.1,1013.0,290.8,1.0,1.3,316.8,0.00,7.7,10.1,"22:05:20",1
"18/12/11","22:20",0.0,8.2,96.4,1013.3,310.8,0.7,1.6,323.9,0.00,7.7,9.9,"22:12:40",1
"18/12/11","22:30",0.0,8.2,96.5,1012.8,301.0,1.2,1.8,316.2,0.00,7.7,10.2,"22:23:28",1
"18/12/11","22:40",0.0,8.3,96.7,1013.0,327.6,1.5,2.1,321.6,0.00,7.8,10.0,"22:32:32",1
"18/12/11","22:50",0.2,8.3,97.0,1012.8,300.7,0.8,1.6,333.0,0.00,7.9,10.0,"22:41:28",1
"18/12/11","23:00",0.2,8.4,96.9,1012.8,319.5,0.8,1.3,327.1,0.00,8.0,9.9,"22:57:36",1
"18/12/11","23:10",0.0,8.4,97.0,1012.3,315.1,1.6,2.1,318.9,0.00,8.0,10.1,"23:08:24",1
"18/12/11","23:20",0.0,8.5,97.4,1012.8,295.5,1.0,1.4,301.1,0.00,8.2,9.9,"23:11:20",1
"18/12/11","23:30",0.4,8.7,97.4,1012.3,270.7,0.7,1.3,276.4,0.00,8.4,10.1,"23:23:30",1
"18/12/11","23:40",0.2,8.7,97.3,1012.3,304.0,0.8,1.4,322.8,0.00,8.3,9.8,"23:39:28",1
"18/12/11","23:50",0.2,8.8,97.4,1012.3,302.3,1.5,1.9,320.4,0.00,8.5,9.9,"23:42:08",1
"18/12/11","24:00",0.0,8.9,97.5,1011.9,292.3,1.1,1.7,270.4,0.00,8.6,10.0,"23:51:26",1
